Regional Weather Roundup
Issued by NWS Grand Forks, ND

Home | Current Version | Previous Version | Graphics & Text | Print | Product List | Glossary On
Versions: 1 2 3 4 5 6 7 8 9 10 11 12 13 14 15 16 17 18 19 20 21 22 23 24 25 26 27 28 29 30 31 32 33 34 35 36 37 38 39 40 41 42 43 44 45 46 47 48 49 50
000
ASUS43 KFGF 101631
RWRFGF
PRAIRIE TO PINES  WEATHER ROUNDUP
NATIONAL WEATHER SERVICE EASTERN NORTH DAKOTA/GRAND FORKS ND
1000 AM CST SAT DEC 10 2016

 **SATELLITE DATA USED TO AUGMENT SKY COVER AT AUTOMATED STATIONS**
 *****  WEATHER ACROSS EASTERN NORTH DAKOTA  *****

CITY           SKY/WX    TMP DP  RH WIND       PRES   REMARKS
GRAND FORKS    CLOUDY    -6 -13  71 NE5       30.46F WCI -17
GRAND FRKS AFB CLOUDY    -9 -14  77 CALM      30.45F
DEVILS LAKE    CLOUDY   -12 -16  82 CALM      30.36F
FARGO          CLOUDY    -2  -9  72 E5        30.44F WCI -12
WAHPETON ARPT  CLOUDY    -4  -9  77 CALM      30.44F
$$

 ***** WEATHER ACROSS CENTRAL AND WESTERN NORTH DAKOTA  *****

CITY           SKY/WX    TMP DP  RH WIND       PRES   REMARKS
BISMARCK       CLOUDY   -16 -20  82 NE6       30.31F WCI -31
MINOT          CLOUDY   -18 -22  82 S5        30.28F WCI -31
JAMESTOWN      CLOUDY   -10 -14  82 SE3       30.35S
MINOT AFB      CLOUDY   -23 -29  73 SE5       30.28F WCI -36
GARRISON         N/A    -10 -14  82 E9        30.24F WCI -27
WILLISTON      CLOUDY    -3  -9  75 E7        30.17F WCI -16
DICKINSON      CLOUDY    -4  -9  79 SE16      30.07F WCI -25
HETTINGER      CLOUDY    -4  -8  83 SE10      30.08S WCI -21
$$

 *****  OTHER AIRPORT OBSERVATIONS IN OUR AREA  *****

CITY           SKY/WX    TMP DP  RH WIND       PRES   REMARKS
WALHALLA         N/A    -11 N/A N/A SE3       30.45S
GRAFTON AIRPOR FAIR      -9 -15  77 CALM      30.49S
VALLEY CITY AR PTSUNNY   -8 -11  84 CALM      30.40R
CANDO          FAIR      -9 -15  77 CALM      30.38S
CAVALIER APRT    N/A     -9 -15  77 CALM      30.46S
GWINNER        CLOUDY    -4  -8  84 E6        30.39S WCI -16
SHEYENNE NWR     N/A     -7 -15  69 E3        29.95S
ROLLA          FAIR     -15 -20  76 SW3       30.30F
 ***** THE ABOVE OBSERVATIONS ARE NON NWS ARE NOT QUALITY
       CONTROLLED AND MAY MIS-REPORT RAIN FOR SNOW...
$$

  *****  WEATHER ACROSS NORTHERN MINNESOTA  *****

CITY           SKY/WX    TMP DP  RH WIND       PRES   REMARKS
FLAG ISLAND    MOSUNNY   -4  -8  84 NW5       30.41S WCI -15
WARROAD        CLOUDY    -9 -15  77 W3        30.43S
ROSEAU         CLOUDY    -6 -11  77 CALM      30.44S HAZE
HALLOCK        CLOUDY    -9 -15  77 CALM      30.46F
THF RVR FALLS  FLURRIES  -2  -7  79 CALM      30.44F
BAUDETTE       MOSUNNY   -8 -12  83 CALM      30.40S
WASKISH        SUNNY      0  -6  78 CALM      30.41S
CROOKSTON      CLOUDY    -8 -13  77 SE3       30.47S
STEPHEN NDAWN    N/A     -9 -15  77 N2          N/A
GREENBUSH NDAW   N/A     -8 -11  84 SW1         N/A
$$
  *****  WEATHER ACROSS CENTRAL AND WEST MINNESOTA  *****

CITY           SKY/WX    TMP DP  RH WIND       PRES   REMARKS
FOSSTON        CLOUDY    -6 -11  77 NE3       30.40F
BEMIDJI        CLOUDY    -9 -13  83 CALM      30.40S
PARK RAPIDS    CLOUDY   -13 -18  78 NW3       30.38F
ELBOW LAKE     FAIR      -6 -10  84 CALM      30.41F
WADENA         CLOUDY    -4  -9  77 E3        30.38F
DETROIT LAKES  CLOUDY    -8  -9  92 CALM      30.39S
MOORHEAD       CLOUDY    -6 -11  77 SE3       30.45R
FERGUS FALLS   CLOUDY    -6  -9  84 CALM      30.47F
MORRIS MN      CLOUDY    -2  -8  78 CALM      30.41S
STAPLES        NOT AVBL
$$
  *****  WEATHER ELSEWHERE ACROSS MINNESOTA  *****

CITY           SKY/WX    TMP DP  RH WIND       PRES   REMARKS
DULUTH         CLOUDY     1  -6  72 NW6       30.39F WCI -10
INTRNTL FALLS  SUNNY     -5 -10  79 CALM      30.41S
ELY            SUNNY     -2  -6  84 SW5       30.38S WCI -12
CLOQUET        CLOUDY     1  -6  71 CALM      30.41S
WHEATON        CLOUDY    -2  -8  78 E3        30.44F
BRAINERD       CLOUDY     2  -3  80 SW3       30.40F
HIBBING        SUNNY     -2  -7  79 CALM      30.40F
ALEXANDRIA     CLOUDY    -2  -6  83 CALM      30.39S
SAINT CLOUD    CLOUDY     2  -2  83 CALM      30.44F
MINNEAPOLIS    CLOUDY     7   0  73 CALM      30.47F
$$

  *****  WEATHER ACROSS SOUTH DAKOTA  *****

CITY           SKY/WX    TMP DP  RH WIND       PRES   REMARKS
SIOUX FALLS    LGT SNOW  11   8  88 SE10      30.32R VSB 1   WCI  -3
BROOKINGS      LGT SNOW   5   0  79 SE10      30.30F VSB 1   WCI -10
WATERTOWN      LGT SNOW   1  -3  83 E7        30.29S FOG     WCI -12
HURON          SNOW       7   4  87 E7        30.32F VSB 1/2 WCI  -5
SISSETON         N/A     -4  -9  79 VRB3      30.40F
ABERDEEN       CLOUDY    -2 -11  65 NE7       30.38S WCI -15
MITCHELL       LGT SNOW  12   9  87 E10       30.31R VSB 1   WCI  -1
PIERRE         LGT SNOW   2  -3  80 E14       30.21F WCI -16
MOBRIDGE       LGT SNOW   0  -8  69 E12       30.21S WCI -17
RAPID CITY     LGT SNOW   2  -1  88 SE12      29.96F FOG     WCI -15
$$

  *****  SOME WEATHER IN NEARBY STATES *****

CITY           SKY/WX    TMP DP  RH WIND       PRES   REMARKS
GLASGOW MT     LGT SNOW  -1  -7  75 E14       30.01S VSB 3/4 WCI -20
GREAT FALLS MT CLOUDY     2  -2  83 CALM      29.72F
CHEYENNE WY    CLOUDY    47  20  34 W21G40    29.85F
SCOTTSBLUFF NE CLOUDY    18  13  80 SE9       29.87F WCI   7
OMAHA NE       FLURRIES  25  18  74 SE10      30.36F WCI  15
DES MOINES IA  LGT SNOW  24  18  77 SE10      30.43F WCI  14
DAVENPORT IA   CLOUDY    22  14  71 SW7       30.52S WCI  13
CHICAGO IL     PTSUNNY   22  14  71 W7        30.51F WCI  13
EAU CLAIRE WI  SUNNY      9   2  73 W5        30.46S WCI   1
LA CROSSE WI   PTSUNNY   13   6  74 CALM      30.50S
$$

  *****  SOME NATIONAL WEATHER *****

CITY           SKY/WX    TMP DP  RH WIND       PRES   REMARKS
LA GUARDIA NY  PTSUNNY   34  20  56 NW15      30.39F WCI  24
RALEIGH NC     SUNNY     35  15  44 VRB3      30.56F
ATLANTA GA     SUNNY     39  18  42 NE6       30.53F
NEW ORLEANS LA MOSUNNY   45  27  49 E14       30.54F
OKLAHOMA CITY  CLOUDY    37  22  54 S22G32    30.31F
ALBUQUERQUE NM CLOUDY    35  27  72 CALM      30.25F
SALT LAKE CITY LGT RAIN  41  39  93 E7        29.94F FOG
LOS ANGELES CA CLOUDY    55  54  96 NE6       30.17S FOG
BOISE ID       CLOUDY    35  34  96 SE8       29.85S FOG
SEATTLE WA     MOCLDY    38  36  92 SE12      29.86S
$$

*** WEATHER ACROSS MANITOBA...SASKATCHEWAN AND ONTARIO ***
                ***ONTARIO***

CITY           SKY/WX    TMP DP  RH WIND       PRES   REMARKS
GERALDTON      PTSUNNY   -2  -8  78 VRB2      30.31S
THUNDER BAY    MOSUNNY    7  -2  66 W8        30.42S WCI  -6
SIOUX LOOKOUT  CRYSTALS  -6 -11  77 NW5       30.35S WCI -17
TORONTO        FLURRIES  25  19  80 SE2       30.34S
BIG TROUT LK   FLURRIES  -9 -15  77 W10G17    30.34S WCI -28
PICKLE LAKE    LGT SNOW  -6  -9  84 N3        30.33R
DRYDEN         SUNNY     -8 -11  84 W5        30.35S WCI -19
KENORA         LGT SNOW  -4  -8  84 W5        30.37S FOG     WCI -15
$$
                *** MANITOBA***

CITY           SKY/WX    TMP DP  RH WIND       PRES   REMARKS
BRANDON        PTCLDY   -20 -26  76 W6        30.36S WCI -36
DAUPHIN        CLEAR    -22 -27  76 W7        30.38F WCI -39
ISLAND LAKE    FLURRIES  -6  -9  84 SW7       30.38F WCI -20
PILOT MOUND      N/A    -17 -22  76 S5          N/A  WCI -29
THE PAS        PTCLDY   -11 -17  77 SW6       30.34F WCI -25
THOMPSON       FLURRIES  -4  -9  77 SW6       30.30F WCI -16
WINNIPEG       MOSUNNY  -11 -17  77 SW3       30.47S
LYNN LAKE      FLURRIES -11 -15  84 SW6       30.18F WCI -25
CHURCHILL      MOCLDY   -13 -18  77 W12G17    30.23F WCI -33
GILLAM         FLURRIES  -6 -11  77 SW7       30.32F WCI -20
$$
                ***SASKATCHEWAN***

CITY           SKY/WX    TMP DP  RH WIND       PRES   REMARKS
ESTEVAN        CLOUDY   -20 -26  76 E9        30.22F WCI -40
KINDERSLEY     PTCLDY    -6  -9  84 E17       30.00F WCI -28
LLOYDMINSTER   CRYSTALS -22 -27  76 E5        30.07F WCI -36
PRINCE ALBERT  CRYSTALS -20 -26  76 NE2       30.24F
REGINA         MOCLDY   -17 -22  76 SE12      30.19F WCI -38
YORKTON        CLEAR    -17 -22  76 S5        30.28F WCI -29
N. BATTLEFORD  MOCLDY   -13 -18  77 SE8       30.16F WCI -30
LA RONGE       PTCLDY   -18 -24  76 CALM      30.25F
SASKATOON      MOCLDY    -8 -13  77 E6        30.19F WCI -21
SWIFT CURRENT  CLOUDY    -4  -8  84 SE15G21   29.94F WCI -25
$$
NOTE: THESE ARE AUTOMATED STATIONS WITH LIMITED QUALITY CONTROL
      "FAIR" INDICATES FEW OR NO CLOUDS BELOW 12,000 FEET WITH NO
      SIGNIFICANT WEATHER AND/OR OBSTRUCTIONS TO VISIBILITY.
      SKY/WX - SKY CONDITION AND SIGNIFICANT WEATHER.
      TMP - AIR TEMPERATURE.    DP   - DEWPOINT TEMPERATURE.
      RH  - RELATIVE HUMIDITY.  PRES - PRESSURE.
      HX  - HEAT INDEX.         WCI  - WIND CHILL INDEX.
$



USA.gov is the U.S. government's official web portal to all federal, state and local government web resources and services.